Location: Capannuccia
(43.7000°N, 11.3000°E)
Time: 09:20:46
(UTC+00:00)

STARLINK-1312 - Pass Details

Date: 08 October 2020
Orbit: 549 x 550 km, 53.0° (Epoch: 23 October)

Event Time Altitude Azimuth Distance (km) Brightness Sun altitude
Exits shadow 02:01:41 13° 78° (ENE) 1,648 6.7 -35.6°
Drops below altitude 10° 02:02:12 10° 74° (ENE) 1,822 7.0 -35.5°
Sets 02:04:39 0° 63° (ENE) 2,720 8.2 -35.1°
